This is the latest recevied weather packets stored in our database for station/object AC4AG. If no packets are shown the sender has not sent any weather packets the latest 10 day(s).
| Time | Temp. | Humidity | Pressure | Rain* | Wind** | Luminosity | Snow |
|---|---|---|---|---|---|---|---|
| 1777639143 | 8.89° C | 87% | 1014.5 hPa | 0 mm | - | 141 W/m² | - |
| 1777638840 | 8.89° C | 85% | 1014.6 hPa | 0 mm | - | 125 W/m² | - |
| 1777638535 | 8.89° C | 88% | 1014.5 hPa | 0 mm | - | 112 W/m² | - |
| 1777638232 | 8.89° C | 88% | 1014.5 hPa | 0 mm | - | 101 W/m² | - |
| 1777637928 | 8.33° C | 90% | 1014.6 hPa | 0 mm | - | 92 W/m² | - |
| 1777637625 | 7.78° C | 94% | 1014.9 hPa | 0 mm | - | 86 W/m² | - |
| 1777637322 | 7.78° C | 93% | 1014.7 hPa | 0 mm | - | 80 W/m² | - |
| 1777637019 | 7.78° C | 95% | 1014.6 hPa | 0 mm | - | 73 W/m² | - |
| 1777636714 | 6.67° C | 97% | 1014.4 hPa | 0 mm | - | 68 W/m² | - |
| 1777636411 | 6.67° C | 98% | 1014.6 hPa | 0 mm | - | 64 W/m² | - |
| 1777636107 | 6.67° C | 99% | 1014.4 hPa | 0 mm | - | 59 W/m² | - |
| 1777635802 | 5.56° C | 99% | 1014.3 hPa | 0 mm | - | 54 W/m² | - |
| 1777635499 | 6.11° C | 99% | 1014.3 hPa | 0 mm | - | 50 W/m² | - |
| 1777635195 | 5° C | 99% | 1014.3 hPa | 0 mm | - | 44 W/m² | - |
| 1777634892 | 4.44° C | 99% | 1014.2 hPa | 0 mm | - | 38 W/m² | - |
| 1777634589 | 4.44° C | 99% | 1014.3 hPa | 0 mm | - | 33 W/m² | - |
| 1777634286 | 4.44° C | 99% | 1014.1 hPa | 0 mm | - | 28 W/m² | - |
| 1777633982 | 3.89° C | 99% | 1014.1 hPa | 0 mm | - | 23 W/m² | - |
| 1777633679 | 3.33° C | 99% | 1014.1 hPa | 0 mm | - | 18 W/m² | - |
| 1777633378 | 3.33° C | 99% | 1014.1 hPa | 0 mm | - | 13 W/m² | - |
| 1777633075 | 3.89° C | 99% | 1014.3 hPa | 0 mm | - | 10 W/m² | - |
| 1777632771 | 3.33° C | 99% | 1014.4 hPa | 0 mm | - | 7 W/m² | - |
| 1777632467 | 3.33° C | 99% | 1014.3 hPa | 0 mm | - | 4 W/m² | - |
| 1777632164 | 3.89° C | 99% | 1014.2 hPa | 0 mm | - | 2 W/m² | - |
| 1777631862 | 3.89° C | 99% | 1014.1 hPa | 0 mm | - | 1 W/m² | - |
* Rain latest hour (hover to see other rain measurements)
** Current wind speed in m/s (hover to see current wind gust speed)